COSMOS 2251 DEB, 37280

Orbit data source: Space-Track

COSMOS 2251 DEB, 37280 is space debris in LEO originally from a launch on Wed, 16 Jun 1993 UTC launched from the Plesetsk Missile And Space Complex (PKMTR). The debris from Iridium 33, an American commercial communications satellite, has been tracked extensively since its accidental collision with the defunct Russian satellite Cosmos 2251 in 2009. This event, occurring at high speed in low Earth orbit (LEO), generated thousands of pieces of space debris, significantly increasing the risk of further collisions. The Iridium 33 debris cloud has impacted space traffic management and orbital debris mitigation strategies, making it a subject of ongoing study in space situational awareness.

Loading next visibility...
Identifier
37280, 1993-036BHU
Orbit
LEO
Country
Flag of CISCIS
Related business
Manufacturer
Unknown
Mission
Spacecraft
Bus & Motor
Unknown
Mass
Unknown
Launch date (UTC)
1993-06-16 (33 years ago)
Launch vehicle
Unknown
Launch site
Plesetsk Missile And Space Complex (PKMTR)
Object type
Payload
Rocket body
Debris
Shape & HBR
Unknown shape, 0.1 m
Radar Cross Section
Small (<0.1 m²)

Expand to show TLE details & history
Last TLE update: 12 hours ago

TLE from 12 hours ago
0 COSMOS 2251 DEB
1 37280U 93036BHU 26177.95612060  .00002196  00000-0  94934-3 0  9993
2 37280  74.0286  65.9663 0133135 146.6126 214.3505 14.20303735601089
Epoch: 2026-06-26T22:56Z
TLE epoch observation values (Epoch: 2026-06-26T22:56:48.819Z)
Latitude
-0.00003°
Longitude
166.68568°
Altitude
906.499 km
Speed
7.358 km/s
True Right ascension
04h 23m 51s
True Declination
0° 00' 00"
Sunlit
Object was in daylight at epoch
Visualization orbit readout
Latitude
Unknown
Longitude
Unknown
Altitude
Unknown
Speed
Unknown
Apparent Right ascension
Unknown
Apparent Declination
Unknown
Sunlit
N/A
Visualization observer readout
Local Sidereal Time
22:43:38
Azimuth
Unknown
Elevation
Unknown
Doppler factor
Unknown
Orbital elements
Apogee altitude
917.826 km
Perigee altitude
726.109 km
Semi-major axis
7,200.104 km
Eccentricity
0.01331
Inclination
74.0286°
RAAN
65.9663°
Arg. of periapsis
146.6126°
True anomaly
213.50137°
Mean anomaly
214.3505°
Eccentric anomaly
213.92477°
Mean motion
3.55251 °/min
Orbital period
101.34 mins
BSTAR
0.00094934
Loading maneuver chart data...
Computing Atmospheric mass density...

Documentation

Showing up to 5 results
|